Location: Finney State Fishing Lake and Wildlife Area
(38.1834°N, 100.3310°W)
Time: 14:52:46
(UTC+00:00)

Cosmos 1346 Rocket - Pass Details

Date: 17 October 2021
Orbit: 529 x 547 km, 81.2° (Epoch: 04 December)

Event Time Altitude Azimuth Distance (km) Brightness Sun altitude
Rises 12:20:00 0° 203° (SSW) 2,693 6.2 -7.1°
Reaches altitude 10° 12:22:14 10° 210° (SSW) 1,808 5.2 -6.7°
Maximum altitude 12:26:01 42° 282° (WNW) 785 3.2 -5.9°
Drops below altitude 10° 12:29:52 10° 355° (N) 1,826 5.4 -5.2°
Sets 12:32:07 0° 2° (N) 2,724 6.3 -4.8°
